Back to catalog

QIANFAN-121

AliveCommunicationsPO
NORAD 68648·PAYLOAD·🇨🇳 China

Launched Apr 7, 2026 from Wenchang Space Launch Site

Loading…

Next Passes (next 24 hours)

TLE

FreshSource: Space-Track

Epoch: Sep 14, 2026, 21:27 UTC

1 68648U 26075N   26257.89427349  .00000064  00000-0  80262-4 0  9992
2 68648  88.9874 311.8406 0002253  99.3783 260.7623 13.51023490 21920

Track QIANFAN-121 in real time with AllMySat

Download on the App Store